Retour au catalogue

INTELSAT 33E DEB

ActifMEO
NORAD 64406·DEBRIS· XX

Lancé Aug 24, 2016 depuis Guiana Space Centre

Loading…

Prochains Passages (prochaines 24 heures)

TLE

FraisSource: Space-Track

Époque: Sep 8, 2026, 14:46 UTC

1 64406U 16053AL  26251.61593988  .00000017  00000-0  00000-0 0  9998
2 64406   1.6743  70.8331 0132200  50.6126 311.3761  0.98886758  6662

Suivez INTELSAT 33E DEB en temps réel avec AllMySat

Download on the App Store